Overview Statistics Trail Chart Weather Telemetry Raw packets
 

This is the latest recevied weather packets stored in our database for station/object WL7CLI. If no packets are shown the sender has not sent any weather packets the latest 10 day(s).

<< 34 35 36 37 38 39 40 >>
Time Temp. Humidity Pressure Rain* Wind** Luminosity Snow
1788376230 34.44° C 50% 1010.5 hPa 0 mm - - -
1788375490 35° C 52% 1010.4 hPa 0 mm - - -
1788375301 35° C 53% 1010.7 hPa 0 mm - - -
1788375029 35° C 49% 1010.8 hPa 0 mm - - -
1788374103 34.44° C 53% 1010.9 hPa 0 mm - - -
1788373931 34.44° C 52% 1011 hPa 0 mm - - -
1788373829 34.44° C 52% 1011 hPa 0 mm - - -
1788373689 34.44° C 51% 1010.7 hPa 0 mm - - -
1788372902 34.44° C 52% 1011.1 hPa 0 mm - - -
1788372629 33.89° C 52% 1011.1 hPa 0 mm - - -
1788371890 33.33° C 53% 1010.8 hPa 0 mm - - -
1788371702 33.33° C 54% 1011.2 hPa 0 mm - - -
1788371430 33.33° C 53% 1011.3 hPa 0 mm - - -
1788370502 33.33° C 55% 1011.5 hPa 0 mm - - -
1788370230 32.78° C 57% 1011.5 hPa 0 mm - - -
1788370089 32.78° C 54% 1011.1 hPa 0 mm - - -
1788369301 32.22° C 55% 1011.6 hPa 0 mm - - -
1788368289 32.22° C 55% 1011.3 hPa 0 mm - - -
1788368101 32.22° C 54% 1011.7 hPa 0 mm - - -
1788367830 32.22° C 57% 1011.7 hPa 0 mm - - -
1788367025 31.11° C 59% 1012 hPa 0 mm - - -
1788366901 31.67° C 59% 1011.9 hPa 0 mm - - -
1788366631 31.11° C 59% 1012 hPa 0 mm - - -
1788366490 31.11° C 60% 1011.5 hPa 0 mm - - -
1788365702 31.11° C 59% 1012.1 hPa 0 mm - - -

* Rain latest hour (hover to see other rain measurements)
** Current wind speed in m/s (hover to see current wind gust speed)